sat.trackr.live / text

‹ back to catalog

GHGSAT-C2

NORAD 47509 · 2021-006DA

PAYLOAD ACTIVE UNKNOWN

§ Identity

Operator
Country
CA
Launch date
2021-01-24
Launch site
AFETR
Launch vehicle
Mass (kg)
RCS (m²)

External: N2YO · Heavens-Above · Gunter

§ Orbital elements

Epoch: 2026-09-08T20:54:31.203072Z

Period
93.59 min
Inclination
97.2079°
Eccentricity
0.0003972
Mean motion
15.38644152 rev/d
Perigee alt
447.4 km
Apogee alt
452.8 km
Semi-major
6,828.3 km
B*
1.4961e-4
RAAN
297.7187°
Arg perigee
206.0141°
Mean anomaly
154.0905°
Rev number
31,271

§ Raw data

GHGSAT-C21 47509U 21006DA  26251.87119448  .00005630  00000+0  14961-3 0  99992 47509  97.2079 297.7187 0003972 206.0141 154.0905 15.38644152312714

JSON: /api/v1/satellites/47509 · /tle

For live sub-satellite position, see the globe view (requires WebGL).

§ Visibility from observer

Set your observer location to see the next 7 days of passes ≥ 10°. The values pass through the URL so the page stays shareable.

No JS? Fill the form by hand. The geolocation button needs JavaScript.